Showing default

VEERY-0G, 66675

Orbit data source: Space-Track

VEERY-0G, 66675 is a payload satellite owned by Care Weather (US) in SSO that was launched on Fri, 28 Nov 2025 UTC via an FALCON 9 launch vehicle from the Air Force Western Test Range (AFWTR). Payload-class satellites include a variety of spacecraft equipped with specific instruments for various scientific and technological missions. These include communications satellites like Starlink; space stations such as the ISS; scientific satellites like the Hubble; Earth observation satellites from companies like Planet Labs, Umbra, and HawkEye 360; GPS; miniature CubeSats for education and research; and military/defense satellites.

Loading next visibility...
Identifier
66675, 2025-276K
Orbit
SSO
Country
Flag of USUS
Related business
Manufacturer
Care Weather
Mission
Operational Commercial Weather
Bus & Motor
CUBESAT 1U, Unknown motor
Mass
1 kg wet, 1 kg dry
Launch date (UTC)
2025-11-28 (9 months ago)
Launch vehicle
FALCON 9
Launch site
Air Force Western Test Range (AFWTR)
Object type
Payload
Rocket body
Debris
Shape & HBR
Box, 0.1 m
Radar Cross Section
0.015 m², Medium (>0.1 m² and < 1m²)

Expand to show TLE details & history
Last TLE update: 23 hours ago

TLE from 23 hours ago
0 VEERY-0G
1 66675U 25276K   26238.02056282  .00008552  00000-0  37841-3 0  9994
2 66675  97.4129 310.5344 0007304 116.1656 244.0332 15.21889874 41044
Epoch: 2026-08-26T00:29Z
TLE epoch observation values (Epoch: 2026-08-26T00:29:36.627Z)
Latitude
-0.00004°
Longitude
-31.14776°
Altitude
505.436 km
Speed
7.61 km/s
True Right ascension
20h 42m 08s
True Declination
0° 00' 00"
Sunlit
Object was in full shadow at epoch
Visualization orbit readout
Latitude
Unknown
Longitude
Unknown
Altitude
Unknown
Speed
Unknown
Apparent Right ascension
Unknown
Apparent Declination
Unknown
Sunlit
N/A
Visualization observer readout
Local Sidereal Time
15:13:54
Azimuth
Unknown
Elevation
Unknown
Doppler factor
Unknown
Orbital elements
Apogee altitude
502.126 km
Perigee altitude
492.082 km
Semi-major axis
6,875.241 km
Eccentricity
0.00073
Inclination
97.4129°
RAAN
310.5344°
Arg. of periapsis
116.1656°
True anomaly
243.95798°
Mean anomaly
244.0332°
Eccentric anomaly
243.99559°
Mean motion
3.80725 °/min
Orbital period
94.56 mins
BSTAR
0.00037841
Loading maneuver chart data...
Computing Atmospheric mass density...
Loading historical data...
Loading historical data...
Loading historical data...
Loading historical data...
Loading historical data...
Loading historical data...
Loading historical data...

Documentation

Showing up to 5 results
|